Hourly Weather Ruka

Today, 20 April, Tuesday

Time Temperature Precipitation Wind Pressure Humidity
00:00 +3°C° 0.7 mm 5 mps 749 mmHg 94%
01:00 +3°C° 0.7 mm 5 mps 749 mmHg 94%
02:00 +3°C° 0.7 mm 5 mps 749 mmHg 95%
03:00 +3°C° 0.7 mm 5 mps 748 mmHg 94%
04:00 +3°C° 0.7 mm 5 mps 748 mmHg 93%
05:00 +3°C° 0.7 mm 5 mps 748 mmHg 93%
06:00 +3°C° 0.3 mm 5 mps 748 mmHg 92%
07:00 +5°C° 0.3 mm 5 mps 748 mmHg 91%
08:00 +5°C° 0.3 mm 5 mps 748 mmHg 91%
09:00 +6°C° 0 mm 5 mps 748 mmHg 88%
10:00 +6°C° 0 mm 5 mps 748 mmHg 86%
11:00 +7°C° 0 mm 6 mps 748 mmHg 83%
12:00 +5°C° 0 mm 6 mps 747 mmHg 86%
13:00 +4°C° 0 mm 6 mps 747 mmHg 88%
14:00 +4°C° 0 mm 6 mps 746 mmHg 91%
15:00 +3°C° 0 mm 5 mps 746 mmHg 92%
16:00 +3°C° 0 mm 5 mps 746 mmHg 94%
17:00 +2°C° 0 mm 5 mps 745 mmHg 95%
18:00 +2°C° 0 mm 5 mps 744 mmHg 95%
19:00 +2°C° 0 mm 5 mps 744 mmHg 95%
20:00 +2°C° 0 mm 5 mps 743 mmHg 95%
21:00 +1°C° 0.3 mm 5 mps 742 mmHg 96%
22:00 +1°C° 0.3 mm 5 mps 742 mmHg 96%
23:00 0°C° 0.3 mm 5 mps 741 mmHg 97%

Tomorrow, 21 April, Wednesday

Time Temperature Precipitation Wind Pressure Humidity
00:00 0°C° 0.9 mm 4 mps 740 mmHg 97%
01:00 0°C° 0.9 mm 4 mps 739 mmHg 98%
02:00 -1°C° 0.9 mm 4 mps 739 mmHg 98%
03:00 -1°C° 0.3 mm 4 mps 738 mmHg 98%
04:00 -1°C° 0.3 mm 4 mps 738 mmHg 98%
05:00 -1°C° 0.3 mm 4 mps 738 mmHg 97%
06:00 0°C° 0.1 mm 4 mps 738 mmHg 97%
07:00 0°C° 0.1 mm 5 mps 739 mmHg 97%
08:00 0°C° 0.1 mm 5 mps 739 mmHg 97%
09:00 +1°C° 0 mm 5 mps 740 mmHg 95%
10:00 +1°C° 0 mm 5 mps 741 mmHg 92%
11:00 +2°C° 0 mm 5 mps 741 mmHg 90%
12:00 +2°C° 0 mm 5 mps 742 mmHg 88%
13:00 +3°C° 0 mm 5 mps 742 mmHg 86%
14:00 +5°C° 0 mm 4 mps 743 mmHg 85%
15:00 +5°C° 0 mm 4 mps 743 mmHg 85%
16:00 +5°C° 0 mm 4 mps 744 mmHg 85%
17:00 +5°C° 0 mm 3 mps 744 mmHg 86%
18:00 +4°C° 0 mm 3 mps 745 mmHg 88%
19:00 +4°C° 0 mm 3 mps 745 mmHg 90%
20:00 +3°C° 0 mm 3 mps 745 mmHg 93%
21:00 +3°C° 0 mm 2 mps 746 mmHg 93%
22:00 +3°C° 0 mm 2 mps 746 mmHg 93%
23:00 +3°C° 0 mm 2 mps 746 mmHg 94%

Day after tomorrow, 22 April, Thursday

Time Temperature Precipitation Wind Pressure Humidity
00:00 +3°C° 0 mm 2 mps 746 mmHg 94%
01:00 +3°C° 0 mm 2 mps 746 mmHg 94%
02:00 +2°C° 0 mm 2 mps 746 mmHg 95%
03:00 +2°C° 0 mm 2 mps 747 mmHg 94%
04:00 +2°C° 0 mm 2 mps 747 mmHg 94%
05:00 +2°C° 0 mm 2 mps 747 mmHg 94%
06:00 +3°C° 0 mm 3 mps 747 mmHg 88%
07:00 +5°C° 0 mm 3 mps 748 mmHg 83%
08:00 +7°C° 0 mm 4 mps 748 mmHg 77%
09:00 +8°C° 0 mm 4 mps 748 mmHg 73%
10:00 +10°C° 0 mm 5 mps 748 mmHg 68%
11:00 +12°C° 0 mm 5 mps 748 mmHg 64%
12:00 +13°C° 0.2 mm 5 mps 748 mmHg 63%
13:00 +13°C° 0.2 mm 5 mps 748 mmHg 61%
14:00 +14°C° 0.2 mm 4 mps 748 mmHg 60%
15:00 +14°C° 0.3 mm 4 mps 748 mmHg 63%
16:00 +13°C° 0.3 mm 4 mps 748 mmHg 66%
17:00 +13°C° 0.3 mm 4 mps 748 mmHg 69%
18:00 +12°C° 0.4 mm 3 mps 748 mmHg 75%
19:00 +10°C° 0.4 mm 3 mps 749 mmHg 81%
20:00 +9°C° 0.4 mm 3 mps 749 mmHg 87%
21:00 +8°C° 0 mm 3 mps 749 mmHg 88%
22:00 +8°C° 0 mm 3 mps 749 mmHg 89%
23:00 +8°C° 0 mm 3 mps 749 mmHg 90%

23 April, Friday

Time Temperature Precipitation Wind Pressure Humidity
00:00 +7°C° 0 mm 3 mps 749 mmHg 91%
01:00 +7°C° 0 mm 3 mps 749 mmHg 91%
02:00 +7°C° 0 mm 3 mps 749 mmHg 91%
03:00 +7°C° 0 mm 3 mps 749 mmHg 91%
04:00 +7°C° 0 mm 3 mps 749 mmHg 91%
05:00 +7°C° 0 mm 3 mps 749 mmHg 91%
06:00 +7°C° 0 mm 4 mps 749 mmHg 87%
07:00 +10°C° 0 mm 4 mps 749 mmHg 83%
08:00 +10°C° 0 mm 5 mps 749 mmHg 79%
09:00 +13°C° 0 mm 5 mps 749 mmHg 72%
10:00 +14°C° 0 mm 6 mps 749 mmHg 66%
11:00 +15°C° 0 mm 6 mps 749 mmHg 60%
12:00 +16°C° 0.1 mm 7 mps 749 mmHg 57%
13:00 +16°C° 0.1 mm 7 mps 748 mmHg 54%
14:00 +17°C° 0.1 mm 7 mps 748 mmHg 51%
15:00 +16°C° 0.2 mm 7 mps 748 mmHg 54%
16:00 +15°C° 0.2 mm 7 mps 747 mmHg 58%
17:00 +15°C° 0.2 mm 7 mps 747 mmHg 61%
18:00 +14°C° 0 mm 6 mps 747 mmHg 64%
19:00 +11°C° 0 mm 6 mps 747 mmHg 67%
20:00 +10°C° 0 mm 6 mps 747 mmHg 70%
21:00 +10°C° 0.1 mm 5 mps 746 mmHg 75%
22:00 +10°C° 0.1 mm 4 mps 746 mmHg 80%
23:00 +10°C° 0.1 mm 4 mps 746 mmHg 84%

24 April, Saturday

Time Temperature Precipitation Wind Pressure Humidity
00:00 +8°C° 0.6 mm 4 mps 746 mmHg 86%
01:00 +7°C° 0.6 mm 4 mps 746 mmHg 88%
02:00 +6°C° 0.6 mm 4 mps 746 mmHg 90%
03:00 +5°C° 1 mm 4 mps 746 mmHg 92%
04:00 +4°C° 1 mm 4 mps 746 mmHg 93%
05:00 +3°C° 1 mm 3 mps 746 mmHg 95%
06:00 +3°C° 0.5 mm 3 mps 746 mmHg 92%
07:00 +4°C° 0.5 mm 3 mps 746 mmHg 89%
08:00 +4°C° 0.5 mm 3 mps 746 mmHg 86%
09:00 +6°C° 0.1 mm 4 mps 746 mmHg 77%
10:00 +7°C° 0.1 mm 4 mps 746 mmHg 69%
11:00 +8°C° 0.1 mm 5 mps 746 mmHg 60%
12:00 +8°C° 0.2 mm 6 mps 746 mmHg 59%
13:00 +8°C° 0.2 mm 6 mps 746 mmHg 58%
14:00 +8°C° 0.2 mm 7 mps 746 mmHg 57%
15:00 +6°C° 0.1 mm 7 mps 746 mmHg 59%
16:00 +5°C° 0.1 mm 7 mps 746 mmHg 60%
17:00 +4°C° 0.1 mm 6 mps 746 mmHg 62%
18:00 +3°C° 0 mm 5 mps 747 mmHg 67%
19:00 +2°C° 0 mm 5 mps 747 mmHg 72%
20:00 +1°C° 0 mm 4 mps 747 mmHg 76%
21:00 0°C° 0 mm 4 mps 748 mmHg 78%
22:00 +1°C° 0 mm 3 mps 748 mmHg 80%
23:00 0°C° 0 mm 3 mps 748 mmHg 82%

25 April, Sunday

Time Temperature Precipitation Wind Pressure Humidity
00:00 0°C° 0 mm 3 mps 748 mmHg 82%
01:00 0°C° 0 mm 3 mps 748 mmHg 82%
02:00 -1°C° 0 mm 2 mps 748 mmHg 82%
03:00 -1°C° 0 mm 2 mps 748 mmHg 80%
04:00 +1°C° 0 mm 2 mps 747 mmHg 78%
05:00 +1°C° 0 mm 2 mps 747 mmHg 75%
06:00 +1°C° 0 mm 3 mps 747 mmHg 67%
07:00 +3°C° 0 mm 4 mps 747 mmHg 59%
08:00 +5°C° 0 mm 5 mps 746 mmHg 50%
09:00 +4°C° 0.1 mm 6 mps 746 mmHg 60%
10:00 +4°C° 0.1 mm 6 mps 746 mmHg 70%
11:00 +3°C° 0.1 mm 7 mps 746 mmHg 80%
12:00 +3°C° 0.3 mm 6 mps 746 mmHg 80%
13:00 +3°C° 0.3 mm 5 mps 746 mmHg 79%
14:00 +3°C° 0.3 mm 5 mps 746 mmHg 79%
15:00 +3°C° 0.1 mm 5 mps 746 mmHg 75%
16:00 +3°C° 0.1 mm 5 mps 746 mmHg 70%
17:00 +5°C° 0.1 mm 5 mps 746 mmHg 65%
18:00 +3°C° 0 mm 4 mps 746 mmHg 70%
19:00 +2°C° 0 mm 3 mps 746 mmHg 76%
20:00 +1°C° 0 mm 2 mps 746 mmHg 81%
21:00 +1°C° 0 mm 2 mps 746 mmHg 84%
22:00 -1°C° 0 mm 2 mps 746 mmHg 87%
23:00 -1°C° 0 mm 2 mps 746 mmHg 90%
Show more